Overview Statistics Trail Chart Weather Telemetry Raw packets
 

This is the latest recevied weather packets stored in our database for station/object CE3TDM-10. If no packets are shown the sender has not sent any weather packets the latest 10 day(s).

<< 6 7 8 9 10 11 12 >>
Time Temp. Humidity Pressure Rain* Wind** Luminosity Snow
1788391924 25° C 34% 924.1 hPa - - - -
1788390124 25.56° C 33% 924 hPa - - - -
1788389224 25.56° C 33% 924 hPa - - - -
1788388324 25.56° C 34% 923.7 hPa - - - -
1788387424 26.11° C 33% 923.1 hPa - - - -
1788385623 26.67° C 33% 922.6 hPa - - - -
1788384723 27.22° C 33% 922.6 hPa - - - -
1788383823 27.22° C 33% 922.4 hPa - - - -
1788382023 27.78° C 33% 922.5 hPa - - - -
1788380223 28.33° C 32% 922.5 hPa - - - -
1788378423 29.44° C 32% 922 hPa - - - -
1788374822 32.22° C 31% 921.8 hPa - - - -
1788373922 32.22° C 31% 921.7 hPa - - - -
1788373022 32.22° C 31% 922.1 hPa - - - -
1788372122 32.22° C 32% 922.3 hPa - - - -
1788371222 32.22° C 32% 922.4 hPa - - - -
1788370322 32.22° C 32% 922.6 hPa - - - -
1788369422 31.11° C 33% 922.4 hPa - - - -
1788368522 30° C 33% 922.9 hPa - - - -
1788367622 29.44° C 33% 923 hPa - - - -
1788366722 30° C 32% 923 hPa - - - -
1788365822 31.11° C 32% 922.7 hPa - - - -
1788364021 32.78° C 33% 922.7 hPa - - - -
1788363121 31.67° C 34% 922.8 hPa - - - -
1788362221 28.89° C 35% 922.9 hPa - - - -

* Rain since midnight (hover to see other rain measurements)
** Current wind speed in m/s (hover to see current wind gust speed)